Flag for U.S.A. Weather past 2 weeks in Pomona, California, U.S.A.

Now
66 °F

Clear.


Feels Like: 66 °F
Forecast: 52 / 84 °F
Wind: 5 mph from West

Location: Chino Airport

Current Time: Mar 28, 2015 at 10:00:15 PM

Latest Report: Mar 28, 2015 at 8:53 PM


Visibility: 10 mi

Pressure: 30.03 "Hg

Humidity: 52%

Dew point: 48 °F

Location of PomonaLocation

Historic Weather in Pomona — Graph

°F

Pomona temperature yesterday

Maximum temperature yesterday: 94 °F (at 1:53 PM)
Minimum temperature yesterday: 54 °F (at 5:53 AM)
Average temperature yesterday: 72 °F

Past Weeks' High & Low Weather Summary

 TemperatureHumidityPressure
High94 °F (Mar 26, 2:53 PM)93% (Mar 20, 5:57 AM)30.19 "Hg (Mar 20, 5:57 AM)
Low49 °F (Mar 20, 5:57 AM)10% (Mar 15, 1:53 PM)29.87 "Hg (Mar 16, 4:53 PM)
Average68 °F53%30.03 "Hg
* Reported Mar 13 8:53 PM — Mar 28 8:53 PM, Pomona, Weather by CustomWeather, © 2015

Note: Actual official high and low records may vary slightly from our data, if they occured in-between our weather recording intervals... More about our weather records

Advertising

Pomona weather history for previous 24 hours

 ConditionsComfort  
Time TempWeatherWind HumidityBarometerVisibility
8:53 PM
Sat, Mar 28
66 °FClear.5 mph52%30.03 "Hg10 mi
7:53 PM70 °FPassing clouds.7 mph44%30.01 "Hg10 mi
6:53 PM76 °FPassing clouds.9 mph33%30.00 "Hg10 mi
5:53 PM83 °FPassing clouds.13 mph17%29.99 "Hg10 mi
4:53 PM86 °FPassing clouds.15 mph19%29.98 "Hg10 mi
3:53 PM88 °FPassing clouds.15 mph17%29.98 "Hg10 mi
2:53 PM90 °FPassing clouds.15 mph15%29.99 "Hg10 mi
1:53 PM90 °FSunny.13 mph15%30.01 "Hg10 mi
12:53 PM89 °FSunny.12 mph19%30.04 "Hg10 mi
11:53 AM85 °FSunny.5 mph18%30.05 "Hg10 mi
10:53 AM79 °FSunny.No wind24%30.07 "Hg10 mi
9:53 AM73 °FSunny.No wind34%30.08 "Hg10 mi
8:53 AM65 °FSunny.No wind49%30.08 "Hg10 mi
7:53 AM57 °FSunny.No wind74%30.08 "Hg10 mi
6:53 AM50 °FClear.No wind83%30.07 "Hg10 mi
5:53 AM53 °FClear.No wind80%30.06 "Hg5 mi
4:53 AM56 °FClear.No wind67%30.05 "Hg7 mi
3:53 AM56 °FClear.No wind70%30.04 "Hg6 mi
2:53 AM58 °FClear.No wind65%30.05 "Hg6 mi
1:53 AM60 °FClear.No wind60%30.06 "Hg5 mi
12:53 AM60 °FClear.No wind60%30.06 "Hg6 mi
11:53 PM
Fri, Mar 27
61 °FClear.No wind58%30.06 "Hg6 mi
10:53 PM63 °FClear.3 mph52%30.06 "Hg8 mi
Weather by CustomWeather, © 2015

See weather overviewHow to use our weather pages